Regional Weather Roundup
Issued by NWS Kansas City/Pleasant Hill, MO

Home | Current Version | Previous Version | Text Only | Print | Product List | Glossary On
Versions: 1 2 3 4 5 6 7 8 9 10 11 12 13 14 15 16 17 18 19 20 21 22 23 24 25 26 27 28
000
ASUS43 KEAX 250010
RWREAX

WEATHER ROUNDUP FOR EASTERN KANSAS AND NORTHWEST MISSOURI
NATIONAL WEATHER SERVICE KANSAS CITY/PLEASANT HILL MO
600 PM CST FRI FEB 24 2017

KSZ040-057-103>105-MOZ028-029-037-043-250100-
...KANSAS CITY METROPOLITAN AREA...

CITY           SKY/WX    TMP DP  RH WIND       PRES   REMARKS
K.C. INTL      FLURRIES  28  22  78 NW17G26   29.90R WCI  16
6HR MIN TEMP:  28; 6HR MAX TEMP:  37; 6HR PCP: TRACE;

K.C. DOWNTOWN  CLOUDY    31  22  69 NW17G24   29.91R WCI  19
6HR MIN TEMP:  31; 6HR MAX TEMP:  42; 6HR PCP: TRACE;

LEES SUMMIT    CLOUDY    31  22  69 NW21G26   29.89R WCI  18
6HR MIN TEMP:  31; 6HR MAX TEMP:  42; 6HR PCP: TRACE;

OLATHE - IXD   CLOUDY    29  22  75 NW22      29.92R WCI  15
6HR MIN TEMP:  29; 6HR MAX TEMP:  39; 6HR PCP: TRACE;

OLATHE - OJC   CLOUDY    29  22  75 NW18G25   29.90R WCI  16
6HR MIN TEMP:  29; 6HR MAX TEMP:  39; 6HR PCP:  0.01;

LAWRENCE       CLOUDY    29  21  72 NW24G30   29.95R WCI  15

$$

MOZ001>008-011>017-020>025-030>033-038>040-044>046-053-054-250100-
...NORTHERN AND CENTRAL MISSOURI...

CITY           SKY/WX    TMP DP  RH WIND       PRES   REMARKS
ST. JOSEPH     CLOUDY    27  23  85 NW21      29.93R WCI  13
6HR MIN TEMP:  27; 6HR MAX TEMP:  33; 6HR PCP: TRACE;

MOSBY          MOCLDY    30  23  74 NW16G23   29.89R WCI  19
WARRENSBURG    CLOUDY    32  21  64 W16G22    29.88R WCI  21
WHITEMAN AFB   DRIZZLE   34  26  72 W17G26    29.84R WCI  24
6HR MIN TEMP:  34; 6HR MAX TEMP:  48; 6HR PCP:  0.01;

CLINTON        LGT RAIN  36  27  69 NW20G28   29.88R WCI  25
SEDALIA        CLOUDY    35  26  69 NW22G32   29.84R WCI  23
6HR MIN TEMP:  35; 6HR MAX TEMP:  47;

WARSAW         NOT AVBL
CHILLICOTHE      N/A     30  24  78 NW16G29   29.84R WCI  19
6HR MIN TEMP:  30; 6HR MAX TEMP:  42;

KIRKSVILLE     LGT SNOW  31  28  89 NW21G31   29.74R FOG     WCI  18
6HR MIN TEMP:  32; 6HR MAX TEMP:  41; 6HR PCP:  0.02;


$$

MOZ041-047>049-056>058-063>065-088>090-097-250100-
...EASTERN AND SOUTHERN MISSOURI...

CITY           SKY/WX    TMP DP  RH WIND       PRES   REMARKS
ST. LOUIS INTL PTCLDY    48  29  47 W17G30    29.70R
6HR MIN TEMP:  48; 6HR MAX TEMP:  59;

SPIRIT OF STL  PTCLDY    46  31  55 W16G23    29.70R
COLUMBIA       CLOUDY    40  30  67 W24G31    29.76R WCI  29
JEFFERSON CITY CLOUDY    43  30  60 W20G30    29.76R WCI  34
ROLLA          MOCLDY    44  28  53 W15       29.73R
OSAGE BEACH    CLOUDY    42  29  59 W15G23    29.81R WCI  34
SPRINGFIELD    CLOUDY    42  25  50 NW15G24   29.83R WCI  34
BRANSON        PTCLDY    46  27  46 NW15G25   29.82R
JOPLIN         CLOUDY    38  23  55 NW21G28   29.93R WCI  28
WEST PLAINS    CLEAR     49  30  48 W9        29.76R

$$

IAZ060-094-KSZ022-034>040-054-083-096-NEZ052-066-093-250100-
...KANSAS...SOUTHEAST NEBRASKA AND IOWA...

CITY           SKY/WX    TMP DP  RH WIND       PRES   REMARKS
TOPEKA         CLOUDY    29  22  75 NW25G32   29.97R WCI  14
6HR MIN TEMP:  29; 6HR MAX TEMP:  36; 6HR PCP: TRACE;

MANHATTAN      LGT SNOW  28  20  71 NW10G20   30.03R WCI  19
EMPORIA        CLOUDY    30  21  69 NW22G30   29.99R WCI  17
CHANUTE        CLOUDY    33  20  58 NW21G31   29.97R WCI  21
WICHITA        PTCLDY    34  21  59 N18       30.02R WCI  23
OMAHA          CLOUDY    26  16  65 NW20      29.96R WCI  12
LINCOLN        FLURRIES  27  18  69 NW18      30.02R WCI  14
FALLS CITY     LGT SNOW  26  22  84 NW18      29.95R FOG     WCI  13
LAMONI         LGT SNOW  25  22  88 NW23G31   29.81R FOG     WCI  10
DES MOINES     LGT SNOW  25  21  85 N20G30    29.81R VSB 3/4 WCI  11

$$





USA.gov is the U.S. government's official web portal to all federal, state and local government web resources and services.